This is the latest recevied weather packets stored in our database for station/object SV2BZQ-2. If no packets are shown the sender has not sent any weather packets the latest 1 day(s).
| Time | Temp. | Humidity | Pressure | Rain* | Wind** | Luminosity | Snow |
|---|---|---|---|---|---|---|---|
| 1778000821 | 23.89° C | 53% | 1011 hPa | 0 mm | 1.34 m/s, 180° | 11 W/m² | - |
| 1778000696 | 23.89° C | 53% | 1011.1 hPa | 0 mm | 1.34 m/s, 161° | 12 W/m² | - |
| 1778000585 | 23.89° C | 53% | 1011.1 hPa | 0 mm | 1.34 m/s, 180° | 16 W/m² | - |
| 1778000457 | 23.89° C | 53% | 1011.1 hPa | 0 mm | 1.34 m/s, 141° | 14 W/m² | - |
| 1778000332 | 23.89° C | 53% | 1011.1 hPa | 0 mm | 1.34 m/s, 107° | 18 W/m² | - |
| 1778000228 | 24.44° C | 53% | 1011.1 hPa | 0 mm | 1.34 m/s, 153° | 21 W/m² | - |
| 1778000127 | 24.44° C | 53% | 1011.1 hPa | 0 mm | 1.34 m/s, 140° | 21 W/m² | - |
| 1778000048 | 24.44° C | 52% | 1011.1 hPa | 0 mm | 1.79 m/s, 127° | 42 W/m² | - |
| 1777999953 | 24.44° C | 52% | 1011.1 hPa | 0 mm | 1.79 m/s, 184° | 53 W/m² | - |
| 1777999726 | 24.44° C | 52% | 1011.2 hPa | 0 mm | 1.79 m/s, 121° | 67 W/m² | - |
| 1777999609 | 25° C | 52% | 1011.1 hPa | 0 mm | 1.34 m/s, 127° | 72 W/m² | - |
| 1777999501 | 25° C | 52% | 1011.1 hPa | 0 mm | 1.34 m/s, 144° | 77 W/m² | - |
| 1777999422 | 25° C | 51% | 1011.1 hPa | 0 mm | 1.34 m/s, 159° | 70 W/m² | - |
| 1777999339 | 25° C | 51% | 1011.2 hPa | 0 mm | 1.34 m/s, 134° | 88 W/m² | - |
| 1777999259 | 25° C | 51% | 1011 hPa | 0 mm | 1.34 m/s, 147° | 91 W/m² | - |
| 1777998999 | 25.56° C | 50% | 1011.1 hPa | 0 mm | 1.34 m/s, 142° | 98 W/m² | - |
| 1777998759 | 25.56° C | 49% | 1011.1 hPa | 0 mm | 1.34 m/s, 88° | 109 W/m² | - |
| 1777998643 | 25.56° C | 48% | 1011.2 hPa | 0 mm | 1.79 m/s, 134° | 113 W/m² | - |
| 1777998511 | 25.56° C | 47% | 1011.2 hPa | 0 mm | 1.79 m/s, 247° | 118 W/m² | - |
| 1777998392 | 25.56° C | 47% | 1011.1 hPa | 0 mm | 1.79 m/s, 141° | 121 W/m² | - |
| 1777998272 | 26.11° C | 46% | 1011.1 hPa | 0 mm | 1.79 m/s, 128° | 128 W/m² | - |
| 1777998180 | 26.11° C | 45% | 1011 hPa | 0 mm | 1.79 m/s, 171° | 132 W/m² | - |
| 1777998088 | 26.11° C | 44% | 1011.1 hPa | 0 mm | 1.79 m/s, 93° | 139 W/m² | - |
| 1777998010 | 26.11° C | 43% | 1011 hPa | 0 mm | 1.79 m/s, 114° | 90 W/m² | - |
| 1777997918 | 26.11° C | 43% | 1011 hPa | 0 mm | 1.79 m/s, 184° | 77 W/m² | - |
* Rain latest hour (hover to see other rain measurements)
** Current wind speed in m/s (hover to see current wind gust speed)